Tracking 19817 objects as of 19-Aug-2019
HD Live streaming from Space Station
objects crossing your sky now

THORAD DELTA 1 DEB

Track THORAD DELTA 1 DEB now!
10-day predictions


NORAD ID: 14879
Int'l Code: 1974-089ES
Perigee: 1,448.4 km
Apogee: 1,791.9 km
Inclination: 101.2 °
Period: 118.5 minutes
Semi major axis: 7991 km
RCS: 0.0345 m2 (small)
Launch date: November 15, 1974
Source: United States (US)
Launch site: AIR FORCE WESTERN TEST RANGE (AFWTR)

Note: This is SATELLITE DEBRIS
aabbcc
Your satellite tracking list
Your tracking list is empty




NASA's NSSDC Master Catalog

Two Line Element Set (TLE):
1 14879U 74089ES  19228.43896181  .00000001  00000-0  37123-3 0  9999
2 14879 101.2113  44.2258 0214935 343.4362  69.3884 12.15309030584092
Source of the keplerian elements: AFSPC